{"data":{"norad_id":57508,"epoch":"2026-09-19T07:12:14.775264Z","epoch_age_seconds":231524,"freshness":"STALE","line1":"1 57508U 23113P   26262.30017101  .00000363  00000+0  22711-4 0  9994","line2":"2 57508  43.0035   2.8059 0001490 266.2656  93.8026 15.27578347173078","mean_motion":15.27578347,"eccentricity":0.000149,"inclination_deg":43.0035,"raan_deg":2.8059,"arg_perigee_deg":266.2656,"mean_anomaly_deg":93.8026,"bstar":2.2711e-5,"rev_number":17307,"period_min":94.266850720161,"perigee_km":482.03172825497,"apogee_km":484.07636318659,"semimajor_km":6861.1910457208,"source":"CELESTRAK","updated_at":"2026-09-21T09:00:33.634521Z"}}